[[{"header":{"parameterUnit":"m.s-1","parameterCategory":1,"la1":30.2991,"la2":30.254,"lo1":-89.0895,"lo2":-89.0444,"dy":0.0017,"dx":0.0017,"nx":28,"ny":28,"refTime":"2023-07-31T21:00:00:Z","depth":0,"parameterNumber":2,"parameterNumberName":"U-component_of_WINDS"},"data":[0,0,0,0,0,0,0,0,0,0,0,0,0,0,0,0,0,0,0,0,0,0,0,0,0,0,0,0,0,0,0,0,0,0,0,0,0,0,0,0,0,0,0,0,0,0,0,0,0,0,0,0,0,0,0,0,0,0,3.6928,3.6928,0,3.6936,3.6936,3.6937,3.6807,3.6804,3.68,3.6797,3.6809,3.6812,3.6816,0,0,0,0,0,0,0,0,0,0,0,0,0,3.6801,3.6804,3.6928,3.6928,3.6928,3.6936,3.6936,3.6937,3.6808,3.6803,3.6799,3.6795,3.6807,3.6812,3.6816,0,0,0,0,0,0,0,0,0,0,0,0,0,3.6838,3.6805,3.6928,3.6865,3.6859,3.6936,3.6936,3.6937,3.6809,3.6803,3.6798,3.6793,3.6806,3.6811,3.6817,3.6956,0,0,3.6833,3.6835,0,0,0,0,0,0,0,0,3.6836,3.6842,3.6874,3.6869,3.6863,3.6865,3.6896,3.6943,3.681,3.6828,3.6797,3.6791,3.6832,3.6835,3.6848,3.6956,3.6957,3.6834,3.6837,3.6839,3.6841,0,0,0,0,0,0,0,3.6833,3.6841,3.6931,3.6874,3.6868,3.6836,3.6836,3.6904,3.686,3.6826,3.6817,3.6819,3.6828,3.6843,3.6848,3.6957,3.6833,3.6838,3.6842,3.6844,3.7176,3.7181,0,0,0,0,0,0,3.6839,3.684,3.6931,3.6931,3.6836,3.6843,3.6842,3.687,3.6858,3.6852,3.6824,3.6813,3.6837,3.6841,3.6847,3.7006,3.6839,3.6844,3.6847,3.717,3.7177,3.7183,0,0,0,0,0,0,3.6837,3.6848,3.6931,3.6883,3.6891,3.6851,3.6883,3.6873,3.6888,3.6857,3.6848,3.6847,3.6833,3.684,3.6929,3.7005,3.6847,3.6852,3.7164,3.7172,3.718,3.7328,0,0,0,0,0,0,3.6834,3.6848,3.6901,3.6885,3.6894,3.7012,3.6888,3.6877,3.6897,3.6883,3.6877,3.6871,3.6829,3.6921,3.6934,3.701,3.6856,3.7157,3.7167,3.7177,3.7316,3.734,3.7361,0,0,0,0,0,3.683,3.6944,3.6904,3.6916,3.6959,3.7017,3.7022,3.6971,3.6904,3.6956,3.6935,3.6871,3.6995,3.6931,3.6945,3.7023,3.7151,3.7164,3.7177,3.7305,3.7335,3.736,0,0,0,0,0,0,3.6971,3.694,3.6896,3.7009,3.7016,3.6995,3.7059,3.7004,3.7032,3.7018,3.6955,3.6954,3.7053,3.7047,3.6977,3.7155,3.7061,3.7077,3.7155,3.7183,3.7205,3.7203,3.686,0,0,0,0,0,3.7015,3.7064,3.7035,3.7137,3.7142,3.71,3.7124,3.7083,3.7089,3.7092,3.7078,3.7086,3.7126,3.7155,3.7191,3.7315,3.731,3.7375,3.7398,3.7416,3.743,3.7492,3.752,3.7224,3.7224,3.7224,0,0,3.7107,3.7096,3.7131,3.7165,3.7165,3.7217,3.7104,3.7164,3.7201,3.7101,3.7183,3.7173,3.7178,3.7285,3.7331,3.7283,3.7511,3.7432,3.7448,3.7451,3.7508,3.7536,3.7561,3.7233,3.7231,3.723,0,0,3.7299,3.7297,3.738,3.7382,3.7384,3.7355,3.7375,3.7362,3.7351,3.7432,3.7356,3.7401,3.7473,3.7478,3.7491,3.7683,3.7624,3.7697,3.7814,3.7875,3.7899,3.7919,3.7985,3.8009,3.7712,3.7712,3.7712,0,3.7413,3.7487,3.743,3.7493,3.7509,3.742,3.7502,3.7508,3.7523,3.7536,3.7482,3.7568,3.7566,3.767,3.7717,3.7731,3.775,3.7697,3.79,3.792,3.7938,3.8,3.8025,3.7721,3.772,3.7719,3.7718,0,3.7625,3.7678,3.7744,3.7758,3.7782,3.7855,3.7808,3.784,3.7798,3.7774,3.7856,3.785,3.7881,3.7904,3.7865,3.8002,3.7972,3.7911,3.7814,3.7975,3.8032,3.8056,3.7733,3.773,3.7727,3.7725,0,0,3.7907,3.7886,3.7911,3.7914,3.7909,3.7949,3.8018,3.8047,3.8073,3.8087,3.8141,3.8204,3.8145,3.816,3.812,3.8174,3.8323,3.8105,3.8104,3.8143,3.8471,3.8516,3.8544,3.8284,3.8289,3.8292,3.847,0,3.8092,3.8206,3.8155,3.8275,3.8321,3.8236,3.8295,3.8298,3.8278,3.8315,3.8293,3.8337,3.8258,3.8266,3.8316,3.8294,3.8388,3.8281,3.8334,3.8336,3.8332,3.8575,3.8622,3.879,3.8492,3.8496,3.8499,0,3.8322,3.8341,3.8465,3.8448,3.8466,3.852,3.8541,3.8578,3.8579,3.8561,3.8576,3.8523,3.8589,3.8495,3.8584,3.8512,3.8531,3.8524,3.8529,3.853,3.8425,3.8579,3.8843,3.8867,3.8534,3.8531,3.8529,0,3.8511,3.8569,3.8649,3.8655,3.8639,3.8679,3.8674,3.867,3.869,3.8709,3.872,3.8748,3.8763,3.8785,3.8741,3.8677,3.8835,3.8738,3.882,3.8822,3.8856,3.8854,3.9123,3.8873,3.8873,3.8872,3.8872,0,3.8721,3.8799,3.8733,3.8783,3.8867,3.8808,3.8894,3.888,3.8877,3.8922,3.8851,3.8895,3.8835,3.8873,3.884,3.8917,3.8925,3.8911,3.89,3.8916,3.8917,3.8925,3.8911,3.8879,3.8877,3.8876,3.8875,0,3.8945,3.8905,3.8986,3.8963,3.8959,3.9022,3.9002,3.9047,3.9021,3.9079,3.9089,3.9049,3.909,3.9048,3.9088,3.9065,3.9167,3.9141,3.9166,3.9157,3.9241,3.9232,3.9522,3.9556,3.9288,3.929,3.9292,0,3.9081,3.9138,3.912,3.9144,3.9143,3.9183,3.9202,3.9147,3.9169,3.9174,3.9218,3.9252,3.9276,3.9345,3.932,3.9349,3.9322,3.9421,3.9325,3.9338,3.9319,3.9315,3.9319,3.944,3.9443,3.9446,3.9448,0,3.9324,3.93,3.9329,3.9351,3.9374,3.939,3.9399,3.9423,3.9366,3.9395,3.9434,3.9453,3.9491,3.9526,3.9547,3.9542,3.9485,3.9479,3.9498,3.9513,3.9524,3.9516,3.9216,3.9472,3.9469,3.9468,3.9466,3.9465,3.9505,3.9551,3.9545,3.9579,3.958,3.959,3.9629,3.9607,3.9639,3.9664,3.963,3.9678,3.9677,3.9698,3.97,3.9737,3.9695,3.9725,3.9732,3.9739,3.975,3.952,3.9742,3.9741,3.974,3.974,3.9739,0,3.9742,3.9733,3.9765,3.9779,3.9805,3.9749,3.9756,3.9782,3.9825,3.9827,3.9852,3.9896,3.9929,3.9906,3.9933,3.9967,3.9942,3.9976,3.9972,3.9971,3.9788,3.9766,3.9996,3.9996,3.9996,3.9996,3.9996,3.9996,3.9868,3.9941,3.9916,3.9989,3.998,4.0025,4.0033,4.0042,4.0043,4.0095,4.0121,4.0105,4.0097,4.0123,4.015,4.0142,4.0154,4.0198,4.0181,4.001,3.9984,3.996,3.9939,4.0201,4.0202,4.036,4.0361,4.0362]},{"header":{"parameterUnit":"m.s-1","parameterCategory":1,"la1":30.2991,"la2":30.254,"lo1":-89.0895,"lo2":-89.0444,"dy":0.0017,"dx":0.0017,"nx":28,"ny":28,"refTime":"2023-07-31T21:00:00:Z","depth":0,"parameterNumber":3,"parameterNumberName":"V-component_of_WINDS"},"data":[0,0,0,0,0,0,0,0,0,0,0,0,0,0,0,0,0,0,0,0,0,0,0,0,0,0,0,0,0,0,0,0,0,0,0,0,0,0,0,0,0,0,0,0,0,0,0,0,0,0,0,0,0,0,0,0,0,0,2.174,2.1741,0,2.1787,2.1788,2.1788,2.1772,2.1771,2.177,2.1769,2.1815,2.1817,2.1819,0,0,0,0,0,0,0,0,0,0,0,0,0,2.1633,2.1636,2.174,2.1741,2.1741,2.1787,2.1788,2.1788,2.1772,2.1771,2.177,2.1769,2.1814,2.1817,2.182,0,0,0,0,0,0,0,0,0,0,0,0,0,2.168,2.1636,2.174,2.1739,2.1739,2.1787,2.1788,2.1788,2.1772,2.1771,2.1769,2.1768,2.1814,2.1817,2.182,2.1871,0,0,2.183,2.1831,0,0,0,0,0,0,0,0,2.1677,2.1684,2.1738,2.1739,2.1739,2.1772,2.1767,2.1816,2.1773,2.176,2.1769,2.1767,2.1802,2.1806,2.1818,2.1873,2.1875,2.183,2.1832,2.1834,2.1835,0,0,0,0,0,0,0,2.1674,2.1682,2.1758,2.1739,2.174,2.1735,2.174,2.1776,2.1789,2.1761,2.176,2.1766,2.1802,2.1815,2.1819,2.1876,2.183,2.1833,2.1835,2.1836,2.1973,2.1974,0,0,0,0,0,0,2.1671,2.1679,2.1757,2.176,2.1704,2.1738,2.1744,2.1763,2.1788,2.1791,2.1767,2.1765,2.181,2.1815,2.1821,2.1881,2.1834,2.1837,2.1839,2.1971,2.1973,2.1975,0,0,0,0,0,0,2.1669,2.1678,2.1755,2.1719,2.1729,2.1742,2.1764,2.1765,2.1778,2.1793,2.1795,2.1778,2.1809,2.1816,2.1858,2.1882,2.1838,2.1841,2.1969,2.1972,2.1974,2.2002,0,0,0,0,0,0,2.1666,2.1677,2.1698,2.172,2.1731,2.1793,2.1765,2.1767,2.1784,2.1782,2.1804,2.1806,2.1809,2.1853,2.1862,2.1886,2.1844,2.1967,2.197,2.1973,2.1999,2.2005,2.201,0,0,0,0,0,2.1662,2.1704,2.1699,2.1708,2.1757,2.1794,2.18,2.1803,2.1786,2.1806,2.1815,2.1806,2.1878,2.1858,2.1867,2.1892,2.1965,2.1969,2.1973,2.1996,2.2004,2.201,0,0,0,0,0,0,2.1684,2.1707,2.1701,2.1752,2.1771,2.1792,2.1817,2.1811,2.1835,2.1832,2.1833,2.1838,2.1881,2.1891,2.1868,2.1942,2.1919,2.1925,2.1934,2.1941,2.1947,2.1943,2.1846,0,0,0,0,0,2.1694,2.1724,2.1742,2.1784,2.1795,2.1804,2.1821,2.1821,2.1841,2.1849,2.1861,2.188,2.1907,2.1925,2.1951,2.2,2.2004,2.2022,2.2028,2.2032,2.2037,2.2062,2.207,2.1987,2.1987,2.1987,0,0,2.1716,2.1733,2.1751,2.1789,2.1804,2.1834,2.1811,2.1844,2.1865,2.1853,2.1894,2.1903,2.1925,2.197,2.1991,2.198,2.2061,2.2037,2.2041,2.2043,2.2067,2.2075,2.2082,2.199,2.1989,2.1989,0,0,2.1772,2.1788,2.1824,2.1839,2.1862,2.1868,2.1877,2.1898,2.1904,2.1945,2.1936,2.1961,2.2008,2.2023,2.2037,2.2096,2.2088,2.2105,2.2134,2.2159,2.2165,2.2171,2.2191,2.2198,2.2109,2.211,2.211,0,2.1796,2.1841,2.1843,2.1876,2.1892,2.1883,2.1919,2.1934,2.1964,2.1975,2.1962,2.202,2.2034,2.2082,2.2096,2.2108,2.2117,2.2102,2.2164,2.217,2.2176,2.2194,2.2202,2.2111,2.2111,2.2111,2.2111,0,2.1869,2.19,2.1926,2.1956,2.1975,2.2009,2.2016,2.2035,2.2033,2.204,2.208,2.2096,2.2124,2.2136,2.2135,2.2184,2.2176,2.2164,2.2141,2.2185,2.2203,2.221,2.2114,2.2113,2.2113,2.2112,0,0,2.1939,2.1969,2.1978,2.1991,2.2015,2.2039,2.2072,2.21,2.2115,2.2136,2.2163,2.2203,2.2191,2.2207,2.2207,2.2229,2.2273,2.2214,2.2214,2.2223,2.2326,2.2334,2.2342,2.2268,2.2269,2.227,2.2324,0,2.1995,2.2054,2.2056,2.211,2.2137,2.2129,2.2157,2.2175,2.2182,2.2206,2.2213,2.224,2.2224,2.2233,2.2255,2.2263,2.2293,2.2259,2.2291,2.2292,2.2285,2.2352,2.2361,2.2411,2.2331,2.2332,2.2333,0,2.2068,2.2092,2.2148,2.2167,2.2178,2.2204,2.2229,2.2253,2.2272,2.2275,2.2292,2.2288,2.2321,2.2297,2.2341,2.2318,2.2331,2.2337,2.2339,2.2341,2.2315,2.2355,2.2427,2.2434,2.2344,2.2343,2.2342,0,2.2112,2.2157,2.2196,2.2207,2.2231,2.2249,2.226,2.2277,2.2293,2.2315,2.2325,2.235,2.2364,2.2382,2.2385,2.2368,2.2429,2.2406,2.2431,2.2431,2.2444,2.2443,2.2518,2.2454,2.2454,2.2454,2.2454,0,2.2174,2.2208,2.2216,2.224,2.2277,2.2279,2.2316,2.2325,2.2341,2.2365,2.2359,2.2382,2.2385,2.2409,2.2411,2.2446,2.2452,2.2455,2.2455,2.2455,2.2454,2.2463,2.2459,2.2456,2.2455,2.2455,2.2455,0,2.2228,2.2236,2.2277,2.2296,2.2301,2.2328,2.2344,2.2366,2.2372,2.2403,2.241,2.242,2.2447,2.2452,2.2484,2.2485,2.2526,2.2524,2.252,2.2519,2.2544,2.2541,2.2626,2.2637,2.2567,2.2568,2.2569,0,2.2267,2.2293,2.2314,2.2331,2.2342,2.2368,2.2385,2.2387,2.2404,2.2427,2.2446,2.2473,2.2494,2.2537,2.2546,2.257,2.2567,2.2595,2.2571,2.2569,2.2566,2.2564,2.2566,2.26,2.26,2.2601,2.2602,0,2.2334,2.2335,2.236,2.2385,2.2404,2.2424,2.2443,2.2456,2.2461,2.248,2.2508,2.2524,2.2557,2.2582,2.2606,2.2616,2.2609,2.2609,2.2616,2.2616,2.2612,2.2613,2.2532,2.2607,2.2607,2.2606,2.2606,2.2606,2.238,2.2402,2.2421,2.2447,2.2462,2.2479,2.25,2.2509,2.2532,2.2559,2.2559,2.2589,2.2606,2.2637,2.2648,2.2671,2.2662,2.2672,2.2674,2.2677,2.2678,2.261,2.2675,2.2675,2.2675,2.2675,2.2675,0,2.2445,2.2457,2.2481,2.2507,2.2528,2.252,2.254,2.2558,2.2584,2.2601,2.2622,2.2653,2.2678,2.2689,2.2713,2.2728,2.2726,2.2735,2.2733,2.2735,2.2686,2.2677,2.2736,2.2736,2.2736,2.2736,2.2736,2.2736,2.2482,2.2518,2.2522,2.2565,2.2576,2.2606,2.2617,2.2633,2.2646,2.2681,2.2702,2.2709,2.2723,2.2747,2.2769,2.2772,2.278,2.279,2.2791,2.2745,2.2738,2.2732,2.2724,2.2792,2.2792,2.2838,2.2838,2.2838]}]]